カタログに戻る

STARLINK-5550

運用中通信SSO
NORAD 56361·PAYLOAD·🇺🇸 United States

打ち上げ Apr 27, 2023 から Vandenberg Space Force Base

Loading…

次のパス (今後24時間)

TLE

最新Source: CelesTrak SupGP

元期: Sep 14, 2026, 20:58 UTC

1 56361C 23058AW  26257.87409722  .00053697  00000+0  32664-2 0  2579
2 56361  97.2857 252.0323 0001412  74.6653 298.4980 15.10500944    17

AllMySatでSTARLINK-5550をリアルタイム追跡

Download on the App Store